This is the latest recevied weather packets stored in our database for station/object WA7CUG. If no packets are shown the sender has not sent any weather packets the latest 10 day(s).
| Time | Temp. | Humidity | Pressure | Rain* | Wind** | Luminosity | Snow |
|---|---|---|---|---|---|---|---|
| 1778180326 | 23.89° C | 34% | 1014.5 hPa | 0 mm | - | 665 W/m² | - |
| 1778180022 | 23.89° C | 33% | 1014.6 hPa | 0 mm | - | 657 W/m² | - |
| 1778179719 | 23.89° C | 33% | 1014.8 hPa | 0 mm | - | 652 W/m² | - |
| 1778179417 | 23.89° C | 36% | 1015 hPa | 0 mm | - | 646 W/m² | - |
| 1778179114 | 23.33° C | 35% | 1014.9 hPa | 0 mm | - | 638 W/m² | - |
| 1778178811 | 23.33° C | 37% | 1015.2 hPa | 0 mm | - | 630 W/m² | - |
| 1778178509 | 23.33° C | 37% | 1014.9 hPa | 0 mm | - | 626 W/m² | - |
| 1778178205 | 23.33° C | 36% | 1014.8 hPa | 0 mm | - | 620 W/m² | - |
| 1778177901 | 22.78° C | 37% | 1015 hPa | 0 mm | - | 612 W/m² | - |
| 1778177597 | 22.78° C | 40% | 1015.2 hPa | 0 mm | - | 606 W/m² | - |
| 1778177294 | 22.22° C | 38% | 1014.8 hPa | 0 mm | - | 598 W/m² | - |
| 1778176991 | 22.22° C | 39% | 1014.9 hPa | 0 mm | - | 591 W/m² | - |
| 1778176686 | 22.22° C | 41% | 1014.8 hPa | 0 mm | - | 584 W/m² | - |
| 1778176383 | 21.67° C | 40% | 1015 hPa | 0 mm | - | 576 W/m² | - |
| 1778176080 | 21.67° C | 40% | 1015 hPa | 0 mm | - | 568 W/m² | - |
| 1778175778 | 21.67° C | 37% | 1015 hPa | 0 mm | - | 560 W/m² | - |
| 1778175476 | 21.67° C | 38% | 1014.9 hPa | 0 mm | - | 552 W/m² | - |
| 1778175173 | 21.67° C | 37% | 1015.3 hPa | 0 mm | - | 543 W/m² | - |
| 1778174869 | 21.67° C | 40% | 1014.8 hPa | 0 mm | - | 532 W/m² | - |
| 1778174566 | 21.11° C | 39% | 1014.9 hPa | 0 mm | - | 525 W/m² | - |
| 1778174261 | 21.11° C | 40% | 1015.2 hPa | 0 mm | - | 516 W/m² | - |
| 1778173959 | 20.56° C | 40% | 1015 hPa | 0 mm | - | 507 W/m² | - |
| 1778173655 | 20.56° C | 40% | 1015 hPa | 0 mm | - | 498 W/m² | - |
| 1778173352 | 20.56° C | 41% | 1014.7 hPa | 0 mm | - | 488 W/m² | - |
| 1778173048 | 20.56° C | 41% | 1015 hPa | 0 mm | - | 478 W/m² | - |
* Rain latest hour (hover to see other rain measurements)
** Current wind speed in m/s (hover to see current wind gust speed)